カタログに戻る

ATLAS 5 CENTAUR DEB

運用中HEO
NORAD 44007·DEBRIS·🇺🇸 United States

打ち上げ Sep 17, 2014 から Cape Canaveral Space Force Station

Loading…

次のパス (今後24時間)

TLE

最新Source: Space-Track

元期: Sep 9, 2026, 13:29 UTC

1 44007U 14055BN  26252.56231024 -.00000033  00000-0  00000-0 0  9997
2 44007  19.1498 170.3026 4854750 117.8025 299.1317  1.76245191 51122

AllMySatでATLAS 5 CENTAUR DEBをリアルタイム追跡

Download on the App Store